Cloud_Cover
12 22 37 45 40 76 21 18 0 0 0 0 0 0 0 0 0 0 0 0 0 0 0 0 0 0 0 0 0 0 0 0 0 0 0 0 0 0 0 0 0 0 0 0 0
0 0 14 20 30 30 29 23 0 0 0 0 0 0 0 1 0 0 0 0 0 0 0 0 0 0 0 0 0 0 0 0 0 0 0 0 0 0 0 0 0 0 0 0 0
0 0 0 0 16 31 29 29 8 0 0 0 0 0 0 0 0 0 0 0 0 0 0 0 0 0 0 0 0 0 0 0 0 0 0 0 0 0 0 0 0 0 0 0 0
0 0 0 0 0 12 24 29 22 0 0 0 0 0 0 0 0 0 0 0 0 0 0 0 0 0 0 0 0 0 0 0 0 0 0 0 0 0 0 0 0 0 0 0 0
0 0 0 0 0 2 2 21 2 0 0 0 0 0 0 0 0 0 0 0 0 0 0 0 0 0 0 0 0 0 0 0 0 0 0 0 0 0 0 0 0 0 0 0 0
0 0 0 0 0 0 0 0 0 0 0 0 0 0 0 0 0 0 0 0 0 0 0 0 0 0 0 0 0 0 0 0 0 0 0 0 0 0 0 0 0 0 0 0 0
0 0 0 0 0 0 0 0 0 0 0 0 0 0 0 0 0 0 0 0 0 0 0 0 0 0 0 0 0 0 0 0 0 0 0 0 0 0 0 0 0 0 0 0 0
0 5 1 0 0 0 0 0 0 0 0 0 0 0 0 0 0 0 0 0 0 0 0 0 0 0 0 0 0 0 0 0 0 0 0 0 0 0 0 0 0 0 0 0 0
1 5 4 5 0 0 0 0 0 0 0 0 0 0 0 0 0 0 0 0 0 0 0 0 0 0 0 0 0 0 0 0 0 0 0 0 0 0 0 0 0 0 0 0 0
5 5 5 2 0 0 0 0 0 0 0 0 0 0 0 0 0 0 0 0 0 0 0 3 0 0 0 0 0 0 0 0 0 0 0 0 0 0 0 0 0 0 0 0 0
0 2 5 0 0 0 1 0 0 0 0 0 0 0 0 0 0 0 0 0 0 0 0 0 0 1 5 0 2 0 0 0 0 0 0 0 0 0 0 0 0 0 0 0 0
0 0 0 0 0 0 0 0 0 0 0 0 0 0 0 0 0 0 0 0 0 0 0 0 0 16 5 5 5 5 0 0 0 0 0 0 0 0 0 0 0 0 0 0 0
0 0 0 0 0 0 0 2 0 0 0 0 0 0 0 0 0 0 0 0 0 0 2 4 4 5 5 5 3 1 5 0 0 0 0 0 0 0 0 0 0 0 0 0 0
0 0 0 0 0 0 0 0 0 0 0 0 0 0 0 0 0 0 0 0 0 0 0 0 0 0 0 0 0 0 0 0 0 0 0 0 0 0 0 0 0 0 0 0 0
0 0 0 0 0 0 0 0 0 0 0 4 3 0 0 5 5 2 0 0 0 0 1 0 1 0 0 0 0 0 0 0 0 0 0 0 0 0 0 0 0 0 0 0 0
0 0 0 0 0 0 0 0 0 0 0 0 0 5 5 5 4 5 5 5 5 5 5 2 0 0 2 4 5 5 0 0 0 0 0 0 0 0 0 0 0 0 0 0 0
0 0 0 0 0 0 0 0 0 0 0 0 0 5 5 5 5 1 1 5 5 5 5 4 5 5 5 0 5 5 0 0 0 0 0 0 0 0 0 0 0 0 0 0 0
0 0 0 0 0 0 0 0 0 0 0 0 0 1 2 5 70 24 5 4 4 2 0 5 5 5 5 5 5 5 3 3 0 0 0 0 0 0 0 0 0 0 0 0 0
0 0 0 0 0 0 0 0 4 4 0 0 0 0 0 2 3 4 5 5 9 86 55 5 10 8 12 4 1 3 0 0 0 0 0 0 0 0 0 0 0 0 0 0 0
0 0 0 0 0 0 0 0 0 0 0 0 0 0 0 0 0 0 0 1 5 5 6 5 4 5 19 76 2 0 0 0 0 0 0 0 0 0 0 12 2 0 0 0 0
0 0 0 0 0 0 0 0 0 0 0 0 0 0 0 2 5 4 2 2 3 3 5 5 21 4 5 36 100 17 1 0 1 3 0 0 1 0 0 0 2 0 0 0 0
0 0 0 0 0 0 0 0 0 0 0 0 0 0 0 0 5 5 5 10 81 95 52 100 56 5 5 5 85 100 98 16 2 0 0 0 14 0 0 0 5 0 0 0 0
1 0 0 0 0 0 2 5 5 4 0 0 0 4 4 28 35 5 48 88 100 44 22 81 91 47 5 5 55 100 100 100 100 87 7 5 1 0 1 4 2 0 0 4 0
4 5 5 1 1 0 0 0 0 1 5 5 5 5 5 67 100 98 79 51 100 100 100 99 78 25 22 67 78 61 100 100 100 69 100 29 33 13 5 2 1 0 0 0 2
8 17 5 5 5 5 1 0 0 0 2 0 3 23 90 38 22 89 100 100 100 100 98 100 100 100 100 100 100 85 81 86 100 100 100 15 62 56 12 0 0 0 0 0 0
4 5 5 5 5 6 5 5 5 5 5 5 4 5 5 30 58 8 99 100 100 100 100 100 96 100 84 100 100 98 57 5 93 100 100 99 0 89 0 0 0 0 0 0 5
39 9 9 74 30 20 7 5 5 5 5 3 3 0 0 0 0 1 68 84 99 100 100 100 100 100 82 100 99 7 21 100 100 100 99 21 4 0 1 4 5 5 5 5 5